Location: Feigenhofen
(48.4939°N, 10.7793°E)
Time: 04:44:49
(UTC+00:00)

Cosmos 2369 Rocket - Pass Details

Date: 26 May 2022
Orbit: 830 x 851 km, 71.0° (Epoch: 24 June)

Event Time Altitude Azimuth Distance (km) Brightness Sun altitude
Rises 01:50:36 0° 331° (NNW) 3,387 5.7 -12.1°
Reaches altitude 10° 01:53:02 10° 331° (NNW) 2,448 4.9 -11.9°
Maximum altitude 01:58:40 87° 244° (WSW) 838 2.2 -11.3°
Drops below altitude 10° 02:04:15 10° 156° (SSE) 2,432 4.3 -10.7°
Sets 02:06:40 0° 156° (SSE) 3,363 5.1 -10.4°
